QPF
0.00 0.00 0.00 0.00 0.00 0.00 0.01 0.01 0.03 0.04 0.05 0.03 0.02 0.04 0.04 0.07 0.08 0.06 0.08 0.06 0.04 0.03 0.05 0.07 0.10 0.10 0.07 0.07 0.06 0.05 0.06 0.07 0.04 0.02 0.01 0.01 0.01 0.02 0.02 0.03 0.03 0.03 0.03 0.04
0.00 0.00 0.00 0.00 0.00 0.00 0.00 0.01 0.03 0.03 0.02 0.03 0.03 0.05 0.06 0.06 0.08 0.09 0.10 0.13 0.07 0.04 0.05 0.09 0.13 0.07 0.04 0.05 0.05 0.04 0.04 0.03 0.03 0.02 0.01 0.01 0.01 0.01 0.01 0.02 0.02 0.03 0.04 0.03
0.00 0.00 0.00 0.00 0.00 0.00 0.00 0.01 0.03 0.03 0.02 0.02 0.04 0.08 0.08 0.08 0.11 0.13 0.13 0.14 0.08 0.07 0.11 0.13 0.09 0.05 0.03 0.03 0.03 0.03 0.03 0.02 0.02 0.02 0.02 0.02 0.01 0.01 0.01 0.03 0.03 0.03 0.03 0.03
0.00 0.00 0.00 0.00 0.00 0.00 0.00 0.00 0.00 0.01 0.02 0.04 0.03 0.07 0.09 0.12 0.20 0.21 0.17 0.16 0.15 0.11 0.11 0.14 0.13 0.12 0.07 0.04 0.03 0.03 0.03 0.03 0.02 0.02 0.02 0.02 0.02 0.02 0.02 0.04 0.05 0.03 0.03 0.03
0.00 0.00 0.00 0.00 0.00 0.00 0.00 0.00 0.00 0.01 0.02 0.03 0.04 0.06 0.07 0.13 0.19 0.17 0.14 0.14 0.17 0.17 0.15 0.14 0.14 0.14 0.12 0.09 0.06 0.04 0.04 0.03 0.04 0.03 0.02 0.02 0.03 0.04 0.04 0.05 0.05 0.04 0.03 0.04
0.00 0.00 0.00 0.00 0.00 0.00 0.00 0.00 0.01 0.01 0.02 0.02 0.03 0.06 0.06 0.07 0.06 0.07 0.12 0.16 0.22 0.21 0.16 0.16 0.16 0.16 0.17 0.13 0.11 0.07 0.05 0.04 0.03 0.03 0.03 0.02 0.02 0.03 0.05 0.05 0.04 0.04 0.04 0.04
0.00 0.00 0.00 0.00 0.00 0.00 0.00 0.00 0.01 0.01 0.01 0.02 0.03 0.05 0.07 0.06 0.06 0.06 0.12 0.16 0.15 0.21 0.18 0.14 0.12 0.14 0.15 0.11 0.11 0.06 0.04 0.03 0.02 0.03 0.03 0.03 0.03 0.04 0.05 0.06 0.07 0.07 0.04 0.03
0.00 0.00 0.00 0.00 0.00 0.00 0.00 0.00 0.01 0.02 0.03 0.04 0.06 0.09 0.09 0.09 0.08 0.07 0.08 0.09 0.11 0.14 0.13 0.10 0.08 0.10 0.07 0.04 0.04 0.04 0.04 0.03 0.03 0.03 0.03 0.03 0.03 0.04 0.04 0.04 0.05 0.04 0.03 0.03
0.01 0.01 0.00 0.00 0.00 0.00 0.00 0.01 0.01 0.01 0.03 0.05 0.07 0.09 0.09 0.10 0.11 0.08 0.08 0.09 0.10 0.13 0.11 0.08 0.07 0.05 0.04 0.04 0.04 0.04 0.02 0.02 0.02 0.03 0.03 0.03 0.02 0.02 0.02 0.02 0.03 0.03 0.03 0.02
0.01 0.01 0.00 0.00 0.00 0.00 0.00 0.01 0.01 0.02 0.04 0.07 0.12 0.15 0.14 0.16 0.20 0.14 0.10 0.09 0.10 0.11 0.12 0.12 0.11 0.08 0.06 0.05 0.04 0.03 0.02 0.02 0.02 0.03 0.02 0.03 0.01 0.01 0.01 0.01 0.01 0.02 0.02 0.01
0.01 0.01 0.00 0.01 0.01 0.01 0.01 0.01 0.01 0.03 0.06 0.06 0.10 0.14 0.10 0.12 0.15 0.19 0.14 0.10 0.09 0.10 0.12 0.13 0.09 0.09 0.08 0.06 0.05 0.05 0.03 0.03 0.02 0.02 0.02 0.03 0.02 0.01 0.01 0.01 0.01 0.01 0.01 0.01
0.00 0.00 0.01 0.01 0.01 0.01 0.01 0.01 0.02 0.03 0.05 0.04 0.06 0.10 0.08 0.07 0.08 0.10 0.11 0.11 0.11 0.11 0.09 0.09 0.08 0.08 0.09 0.09 0.06 0.06 0.05 0.04 0.03 0.03 0.02 0.04 0.04 0.04 0.03 0.02 0.01 0.01 0.02 0.02
0.00 0.01 0.01 0.02 0.02 0.01 0.01 0.01 0.01 0.02 0.02 0.02 0.05 0.08 0.07 0.08 0.08 0.09 0.09 0.07 0.08 0.06 0.05 0.06 0.05 0.06 0.08 0.10 0.09 0.07 0.06 0.05 0.04 0.03 0.02 0.03 0.04 0.04 0.03 0.01 0.01 0.01 0.01 0.01
0.00 0.01 0.01 0.02 0.02 0.02 0.01 0.01 0.01 0.01 0.01 0.02 0.03 0.04 0.05 0.06 0.07 0.09 0.07 0.04 0.03 0.03 0.04 0.05 0.06 0.07 0.07 0.07 0.09 0.08 0.06 0.04 0.04 0.03 0.02 0.01 0.01 0.02 0.01 0.00 0.00 0.00 0.01 0.01
0.00 0.01 0.01 0.02 0.02 0.01 0.01 0.02 0.02 0.01 0.01 0.02 0.02 0.03 0.03 0.04 0.06 0.06 0.04 0.04 0.04 0.04 0.04 0.05 0.07 0.06 0.04 0.03 0.04 0.05 0.05 0.03 0.03 0.02 0.02 0.02 0.01 0.01 0.01 0.01 0.00 0.00 0.00 0.01
0.00 0.01 0.01 0.01 0.01 0.01 0.01 0.02 0.02 0.01 0.01 0.02 0.02 0.03 0.04 0.03 0.03 0.03 0.03 0.04 0.04 0.04 0.04 0.04 0.03 0.04 0.04 0.03 0.03 0.04 0.04 0.03 0.02 0.02 0.02 0.02 0.02 0.01 0.01 0.02 0.01 0.01 0.01 0.01
0.01 0.01 0.01 0.02 0.02 0.02 0.02 0.02 0.02 0.01 0.01 0.01 0.02 0.02 0.02 0.02 0.02 0.01 0.01 0.02 0.02 0.03 0.03 0.03 0.04 0.05 0.05 0.04 0.03 0.03 0.02 0.02 0.02 0.02 0.03 0.03 0.03 0.04 0.04 0.03 0.02 0.02 0.02 0.01
0.02 0.02 0.02 0.02 0.03 0.05 0.04 0.03 0.02 0.02 0.01 0.01 0.01 0.01 0.01 0.01 0.01 0.01 0.00 0.01 0.02 0.02 0.02 0.03 0.03 0.04 0.05 0.04 0.04 0.04 0.03 0.03 0.04 0.03 0.02 0.03 0.04 0.03 0.03 0.02 0.02 0.02 0.01 0.00
0.01 0.02 0.03 0.03 0.04 0.06 0.05 0.03 0.02 0.02 0.02 0.01 0.01 0.01 0.01 0.01 0.01 0.01 0.01 0.00 0.01 0.01 0.02 0.02 0.03 0.03 0.04 0.06 0.08 0.08 0.07 0.06 0.03 0.02 0.01 0.02 0.03 0.02 0.02 0.01 0.01 0.01 0.00 0.00
0.01 0.01 0.02 0.03 0.04 0.07 0.07 0.03 0.01 0.01 0.02 0.01 0.01 0.01 0.01 0.02 0.02 0.01 0.01 0.00 0.01 0.02 0.01 0.02 0.02 0.02 0.03 0.04 0.06 0.07 0.07 0.06 0.05 0.03 0.02 0.02 0.02 0.01 0.01 0.01 0.01 0.01 0.01 0.00
0.01 0.01 0.01 0.02 0.04 0.07 0.04 0.02 0.01 0.02 0.02 0.01 0.01 0.01 0.01 0.02 0.02 0.01 0.01 0.01 0.02 0.03 0.03 0.02 0.02 0.02 0.02 0.02 0.04 0.06 0.06 0.06 0.06 0.04 0.03 0.03 0.02 0.01 0.01 0.01 0.01 0.01 0.00 0.00
0.02 0.02 0.02 0.02 0.03 0.04 0.02 0.01 0.01 0.01 0.01 0.01 0.01 0.01 0.01 0.01 0.01 0.02 0.01 0.02 0.03 0.03 0.02 0.03 0.02 0.02 0.01 0.01 0.02 0.03 0.03 0.03 0.03 0.03 0.04 0.04 0.03 0.02 0.02 0.01 0.01 0.00 0.00 0.00
0.01 0.01 0.01 0.01 0.01 0.01 0.02 0.01 0.01 0.01 0.01 0.01 0.00 0.01 0.01 0.01 0.01 0.02 0.02 0.02 0.02 0.03 0.03 0.03 0.02 0.01 0.01 0.02 0.02 0.02 0.02 0.02 0.02 0.02 0.03 0.03 0.02 0.02 0.02 0.01 0.01 0.00 0.00 0.00
0.01 0.01 0.01 0.01 0.01 0.01 0.01 0.00 0.00 0.00 0.01 0.01 0.01 0.01 0.01 0.01 0.01 0.01 0.02 0.02 0.03 0.02 0.03 0.02 0.01 0.01 0.02 0.02 0.02 0.02 0.01 0.01 0.01 0.01 0.02 0.02 0.01 0.02 0.02 0.01 0.01 0.01 0.01 0.01
0.01 0.01 0.01 0.01 0.01 0.01 0.01 0.00 0.00 0.01 0.00 0.01 0.01 0.01 0.01 0.00 0.01 0.01 0.01 0.02 0.03 0.02 0.02 0.01 0.01 0.01 0.01 0.01 0.01 0.01 0.01 0.01 0.01 0.01 0.01 0.02 0.02 0.01 0.01 0.01 0.01 0.01 0.01 0.01
0.01 0.01 0.01 0.01 0.01 0.01 0.01 0.01 0.00 0.01 0.00 0.01 0.01 0.00 0.00 0.00 0.00 0.01 0.02 0.03 0.03 0.02 0.01 0.01 0.01 0.02 0.01 0.02 0.01 0.00 0.00 0.01 0.01 0.01 0.01 0.01 0.01 0.01 0.01 0.00 0.00 0.00 0.00 0.01
MSLP
1013.87 1014.43 1014.75 1014.82 1014.74 1014.59 1014.48 1014.51 1014.73 1015.15 1015.74 1016.42 1017.13 1017.80 1018.39 1018.88 1019.28 1019.62 1019.96 1020.31 1020.69 1021.09 1021.48 1021.81 1022.06 1022.17 1022.15 1022.01 1021.79 1021.52 1021.27 1021.08 1020.96 1020.93 1020.97 1021.04 1021.11 1021.14 1021.11 1021.00 1020.81 1020.56 1020.26 1019.94
1013.95 1014.31 1014.43 1014.37 1014.22 1014.09 1014.10 1014.31 1014.76 1015.41 1016.20 1017.04 1017.85 1018.55 1019.10 1019.51 1019.82 1020.08 1020.36 1020.67 1021.05 1021.47 1021.88 1022.24 1022.50 1022.61 1022.57 1022.40 1022.14 1021.85 1021.59 1021.39 1021.29 1021.27 1021.31 1021.38 1021.43 1021.42 1021.34 1021.18 1020.95 1020.67 1020.37 1020.06
1013.83 1013.98 1013.92 1013.75 1013.57 1013.52 1013.69 1014.14 1014.85 1015.77 1016.80 1017.80 1018.70 1019.41 1019.92 1020.23 1020.42 1020.56 1020.74 1020.99 1021.33 1021.74 1022.17 1022.54 1022.81 1022.93 1022.89 1022.72 1022.45 1022.16 1021.89 1021.71 1021.62 1021.61 1021.66 1021.72 1021.75 1021.71 1021.59 1021.38 1021.10 1020.80 1020.48 1020.18
1013.60 1013.56 1013.35 1013.10 1012.94 1013.00 1013.37 1014.08 1015.07 1016.26 1017.51 1018.67 1019.64 1020.35 1020.78 1020.98 1021.03 1021.04 1021.09 1021.25 1021.53 1021.92 1022.35 1022.75 1023.04 1023.18 1023.16 1022.99 1022.74 1022.45 1022.20 1022.04 1021.96 1021.97 1022.03 1022.08 1022.09 1022.02 1021.85 1021.60 1021.29 1020.95 1020.62 1020.32
1013.42 1013.20 1012.87 1012.58 1012.47 1012.67 1013.23 1014.18 1015.44 1016.86 1018.29 1019.57 1020.59 1021.27 1021.61 1021.68 1021.58 1021.44 1021.38 1021.44 1021.67 1022.04 1022.47 1022.88 1023.21 1023.38 1023.39 1023.25 1023.02 1022.75 1022.52 1022.36 1022.30 1022.32 1022.37 1022.43 1022.42 1022.33 1022.13 1021.84 1021.50 1021.13 1020.78 1020.47
1013.39 1013.04 1012.64 1012.33 1012.28 1012.60 1013.34 1014.48 1015.93 1017.51 1019.06 1020.41 1021.42 1022.04 1022.29 1022.23 1022.01 1021.75 1021.58 1021.57 1021.76 1022.11 1022.56 1023.00 1023.36 1023.58 1023.62 1023.52 1023.30 1023.05 1022.83 1022.68 1022.61 1022.63 1022.68 1022.72 1022.71 1022.60 1022.38 1022.08 1021.71 1021.33 1020.96 1020.64
1013.56 1013.14 1012.70 1012.41 1012.42 1012.83 1013.68 1014.95 1016.49 1018.16 1019.74 1021.08 1022.04 1022.59 1022.74 1022.58 1022.25 1021.91 1021.68 1021.63 1021.81 1022.17 1022.64 1023.13 1023.53 1023.79 1023.87 1023.79 1023.60 1023.35 1023.12 1022.95 1022.88 1022.87 1022.91 1022.94 1022.92 1022.80 1022.58 1022.27 1021.90 1021.50 1021.12 1020.79
1013.92 1013.48 1013.05 1012.79 1012.85 1013.32 1014.22 1015.51 1017.06 1018.70 1020.23 1021.50 1022.38 1022.84 1022.90 1022.67 1022.29 1021.92 1021.68 1021.64 1021.84 1022.23 1022.75 1023.28 1023.72 1024.02 1024.13 1024.07 1023.87 1023.62 1023.37 1023.18 1023.07 1023.04 1023.05 1023.06 1023.03 1022.91 1022.70 1022.39 1022.03 1021.63 1021.24 1020.89
1014.35 1013.95 1013.58 1013.37 1013.47 1013.95 1014.84 1016.08 1017.55 1019.08 1020.48 1021.62 1022.39 1022.76 1022.77 1022.52 1022.15 1021.80 1021.60 1021.62 1021.87 1022.32 1022.88 1023.44 1023.92 1024.25 1024.38 1024.32 1024.13 1023.85 1023.58 1023.35 1023.19 1023.12 1023.09 1023.08 1023.04 1022.92 1022.72 1022.43 1022.08 1021.69 1021.30 1020.94
1014.73 1014.43 1014.15 1014.01 1014.15 1014.62 1015.44 1016.57 1017.89 1019.24 1020.48 1021.46 1022.12 1022.42 1022.41 1022.18 1021.87 1021.61 1021.50 1021.60 1021.93 1022.43 1023.03 1023.63 1024.13 1024.46 1024.59 1024.54 1024.33 1024.04 1023.73 1023.46 1023.26 1023.14 1023.08 1023.04 1022.98 1022.87 1022.68 1022.40 1022.06 1021.68 1021.29 1020.92
1014.92 1014.76 1014.61 1014.57 1014.74 1015.19 1015.92 1016.90 1018.03 1019.18 1020.23 1021.06 1021.62 1021.88 1021.90 1021.75 1021.55 1021.42 1021.43 1021.63 1022.03 1022.58 1023.21 1023.81 1024.31 1024.63 1024.76 1024.70 1024.48 1024.18 1023.85 1023.55 1023.31 1023.15 1023.05 1022.98 1022.90 1022.79 1022.60 1022.34 1022.02 1021.64 1021.25 1020.86
1014.88 1014.89 1014.88 1014.95 1015.17 1015.59 1016.23 1017.06 1017.99 1018.94 1019.81 1020.51 1021.00 1021.27 1021.35 1021.32 1021.26 1021.27 1021.42 1021.72 1022.19 1022.77 1023.39 1023.97 1024.44 1024.74 1024.85 1024.78 1024.57 1024.27 1023.94 1023.63 1023.37 1023.18 1023.05 1022.95 1022.86 1022.73 1022.54 1022.29 1021.97 1021.61 1021.21 1020.80
1014.66 1014.83 1014.98 1015.15 1015.42 1015.82 1016.38 1017.06 1017.82 1018.59 1019.30 1019.90 1020.36 1020.66 1020.84 1020.94 1021.05 1021.22 1021.49 1021.88 1022.39 1022.97 1023.56 1024.09 1024.51 1024.78 1024.87 1024.80 1024.60 1024.33 1024.02 1023.72 1023.46 1023.26 1023.11 1022.99 1022.87 1022.73 1022.54 1022.29 1021.97 1021.61 1021.20 1020.77
1014.36 1014.68 1014.96 1015.23 1015.54 1015.93 1016.40 1016.96 1017.56 1018.19 1018.78 1019.31 1019.76 1020.11 1020.40 1020.66 1020.93 1021.24 1021.62 1022.08 1022.60 1023.16 1023.69 1024.15 1024.51 1024.73 1024.80 1024.75 1024.58 1024.35 1024.08 1023.82 1023.59 1023.40 1023.24 1023.10 1022.96 1022.80 1022.60 1022.35 1022.04 1021.67 1021.26 1020.82
1014.14 1014.56 1014.93 1015.28 1015.62 1015.98 1016.38 1016.83 1017.30 1017.80 1018.30 1018.78 1019.23 1019.65 1020.06 1020.46 1020.87 1021.31 1021.78 1022.28 1022.79 1023.30 1023.76 1024.14 1024.43 1024.60 1024.67 1024.63 1024.51 1024.34 1024.14 1023.93 1023.74 1023.56 1023.40 1023.25 1023.09 1022.92 1022.70 1022.45 1022.14 1021.79 1021.38 1020.94
1014.11 1014.58 1015.00 1015.38 1015.73 1016.05 1016.38 1016.71 1017.07 1017.46 1017.87 1018.31 1018.78 1019.26 1019.77 1020.29 1020.82 1021.36 1021.90 1022.43 1022.92 1023.37 1023.75 1024.06 1024.28 1024.42 1024.48 1024.47 1024.40 1024.30 1024.16 1024.02 1023.87 1023.71 1023.56 1023.40 1023.22 1023.03 1022.82 1022.56 1022.27 1021.93 1021.55 1021.12
1014.31 1014.79 1015.22 1015.59 1015.91 1016.17 1016.41 1016.64 1016.89 1017.17 1017.50 1017.90 1018.37 1018.90 1019.48 1020.10 1020.73 1021.35 1021.94 1022.48 1022.95 1023.35 1023.67 1023.92 1024.09 1024.20 1024.26 1024.28 1024.27 1024.22 1024.16 1024.06 1023.95 1023.82 1023.66 1023.49 1023.31 1023.10 1022.89 1022.65 1022.38 1022.08 1021.73 1021.34
1014.72 1015.16 1015.56 1015.88 1016.14 1016.33 1016.48 1016.59 1016.73 1016.91 1017.16 1017.51 1017.97 1018.52 1019.16 1019.85 1020.55 1021.24 1021.87 1022.42 1022.89 1023.26 1023.53 1023.73 1023.87 1023.97 1024.04 1024.09 1024.12 1024.13 1024.11 1024.06 1023.97 1023.84 1023.69 1023.50 1023.30 1023.09 1022.88 1022.66 1022.44 1022.19 1021.90 1021.57
1015.20 1015.58 1015.92 1016.18 1016.36 1016.47 1016.51 1016.53 1016.56 1016.64 1016.82 1017.12 1017.55 1018.11 1018.78 1019.52 1020.28 1021.01 1021.69 1022.27 1022.74 1023.10 1023.36 1023.54 1023.68 1023.77 1023.86 1023.93 1023.99 1024.03 1024.04 1024.01 1023.93 1023.80 1023.62 1023.42 1023.20 1022.99 1022.79 1022.60 1022.42 1022.24 1022.03 1021.77
1015.58 1015.89 1016.16 1016.36 1016.47 1016.50 1016.46 1016.39 1016.34 1016.34 1016.46 1016.71 1017.12 1017.68 1018.37 1019.14 1019.94 1020.72 1021.43 1022.04 1022.54 1022.91 1023.18 1023.37 1023.51 1023.62 1023.72 1023.81 1023.89 1023.95 1023.97 1023.94 1023.84 1023.69 1023.50 1023.27 1023.04 1022.82 1022.63 1022.48 1022.35 1022.23 1022.10 1021.94
1015.72 1015.97 1016.18 1016.32 1016.38 1016.36 1016.27 1016.15 1016.05 1016.01 1016.09 1016.31 1016.71 1017.26 1017.96 1018.75 1019.58 1020.40 1021.15 1021.80 1022.32 1022.73 1023.03 1023.24 1023.40 1023.53 1023.64 1023.74 1023.83 1023.89 1023.90 1023.86 1023.75 1023.57 1023.35 1023.10 1022.85 1022.63 1022.45 1022.32 1022.24 1022.19 1022.13 1022.06
1015.53 1015.74 1015.91 1016.02 1016.06 1016.02 1015.92 1015.80 1015.69 1015.65 1015.73 1015.95 1016.35 1016.91 1017.61 1018.42 1019.27 1020.11 1020.88 1021.57 1022.13 1022.57 1022.90 1023.14 1023.32 1023.47 1023.60 1023.71 1023.80 1023.85 1023.86 1023.80 1023.67 1023.47 1023.23 1022.96 1022.69 1022.46 1022.29 1022.17 1022.12 1022.12 1022.13 1022.12
1015.03 1015.22 1015.37 1015.47 1015.52 1015.51 1015.44 1015.36 1015.30 1015.30 1015.41 1015.67 1016.08 1016.66 1017.37 1018.18 1019.04 1019.89 1020.68 1021.38 1021.97 1022.43 1022.79 1023.06 1023.26 1023.43 1023.56 1023.68 1023.77 1023.83 1023.83 1023.76 1023.62 1023.41 1023.16 1022.87 1022.60 1022.36 1022.18 1022.07 1022.03 1022.04 1022.09 1022.13
1014.31 1014.47 1014.62 1014.75 1014.83 1014.88 1014.89 1014.90 1014.92 1015.01 1015.19 1015.50 1015.96 1016.55 1017.27 1018.08 1018.93 1019.76 1020.55 1021.24 1021.83 1022.30 1022.67 1022.96 1023.17 1023.35 1023.50 1023.63 1023.72 1023.78 1023.78 1023.72 1023.59 1023.39 1023.13 1022.85 1022.57 1022.32 1022.13 1022.01 1021.96 1021.96 1022.01 1022.07
1013.49 1013.64 1013.80 1013.95 1014.10 1014.23 1014.34 1014.46 1014.60 1014.80 1015.07 1015.46 1015.96 1016.58 1017.30 1018.09 1018.92 1019.72 1020.47 1021.14 1021.70 1022.16 1022.52 1022.80 1023.03 1023.21 1023.36 1023.50 1023.61 1023.68 1023.71 1023.66 1023.55 1023.38 1023.14 1022.87 1022.60 1022.34 1022.13 1021.98 1021.89 1021.87 1021.89 1021.94
1012.71 1012.84 1013.00 1013.20 1013.41 1013.63 1013.86 1014.10 1014.37 1014.68 1015.06 1015.52 1016.07 1016.71 1017.43 1018.19 1018.97 1019.72 1020.42 1021.04 1021.56 1021.98 1022.32 1022.58 1022.79 1022.97 1023.13 1023.28 1023.41 1023.50 1023.56 1023.55 1023.48 1023.34 1023.14 1022.89 1022.63 1022.37 1022.14 1021.95 1021.82 1021.75 1021.72 1021.73
Thickness
5744 5729 5722 5730 5736 5735 5733 5729 5726 5737 5752 5743 5733 5728 5730 5731 5728 5724 5719 5715 5712 5711 5711 5711 5709 5707 5704 5700 5697 5696 5694 5693 5692 5690 5686 5683 5680 5678 5677 5676 5675 5674 5673 5672
5724 5722 5738 5746 5746 5742 5735 5727 5728 5739 5751 5741 5727 5723 5727 5727 5725 5724 5718 5712 5710 5705 5704 5703 5701 5699 5697 5693 5690 5688 5687 5686 5685 5683 5680 5677 5674 5671 5670 5668 5667 5666 5666 5665
5719 5734 5751 5747 5741 5737 5736 5731 5731 5732 5738 5736 5723 5710 5714 5720 5720 5717 5714 5710 5706 5703 5699 5697 5694 5691 5689 5686 5683 5682 5680 5680 5679 5677 5674 5670 5667 5664 5662 5660 5658 5658 5658 5657
5728 5746 5749 5743 5741 5742 5728 5747 5745 5739 5721 5705 5713 5689 5701 5707 5707 5708 5706 5704 5701 5700 5696 5691 5688 5684 5682 5680 5679 5676 5674 5672 5671 5669 5666 5662 5658 5654 5652 5651 5650 5650 5649 5648
5730 5746 5746 5742 5748 5752 5744 5754 5746 5737 5718 5701 5700 5688 5691 5700 5697 5700 5703 5701 5699 5697 5693 5687 5683 5680 5677 5675 5672 5669 5667 5664 5663 5661 5658 5655 5651 5647 5645 5643 5641 5640 5639 5639
5741 5756 5756 5755 5763 5762 5755 5742 5731 5716 5701 5682 5690 5685 5683 5692 5698 5700 5701 5700 5696 5692 5689 5683 5680 5676 5671 5668 5665 5662 5658 5656 5654 5652 5650 5647 5643 5639 5636 5634 5631 5630 5629 5629
5730 5745 5759 5764 5751 5750 5741 5712 5688 5683 5671 5673 5691 5684 5682 5698 5706 5705 5701 5696 5693 5689 5682 5677 5674 5669 5665 5660 5657 5654 5650 5647 5646 5644 5641 5639 5635 5632 5629 5626 5623 5621 5619 5619
5709 5714 5743 5753 5746 5735 5729 5712 5683 5672 5666 5671 5684 5678 5684 5700 5706 5705 5700 5692 5686 5681 5677 5672 5668 5663 5658 5655 5651 5647 5643 5639 5638 5635 5633 5630 5628 5624 5621 5619 5616 5614 5612 5611
5709 5714 5744 5752 5755 5743 5724 5711 5706 5682 5675 5665 5669 5678 5686 5694 5694 5693 5689 5684 5677 5673 5670 5665 5660 5656 5652 5648 5644 5641 5637 5633 5630 5627 5625 5622 5620 5617 5614 5612 5609 5607 5606 5605
5723 5712 5730 5745 5747 5740 5731 5716 5693 5677 5661 5654 5663 5667 5669 5681 5683 5684 5680 5674 5670 5666 5662 5657 5653 5649 5646 5642 5638 5634 5631 5627 5624 5620 5618 5615 5612 5610 5608 5605 5602 5600 5599 5597
5726 5709 5714 5724 5719 5715 5717 5709 5694 5677 5672 5657 5650 5661 5687 5685 5683 5678 5675 5671 5665 5659 5654 5650 5647 5644 5639 5635 5631 5627 5624 5620 5616 5613 5610 5608 5605 5603 5600 5598 5595 5593 5592 5590
5722 5703 5695 5709 5724 5730 5720 5710 5695 5677 5671 5667 5657 5661 5691 5686 5682 5677 5671 5666 5659 5654 5649 5645 5641 5637 5633 5629 5625 5622 5618 5614 5610 5607 5604 5601 5599 5596 5593 5590 5588 5587 5585 5583
5720 5697 5681 5685 5696 5710 5710 5713 5705 5688 5671 5662 5655 5661 5681 5679 5674 5671 5666 5661 5654 5648 5643 5638 5634 5630 5626 5623 5619 5616 5613 5609 5605 5601 5598 5595 5592 5589 5586 5584 5582 5581 5579 5576
5724 5695 5683 5676 5681 5694 5697 5704 5705 5690 5667 5664 5665 5666 5669 5669 5666 5662 5658 5654 5648 5643 5638 5633 5628 5624 5620 5617 5613 5610 5607 5603 5600 5596 5592 5589 5586 5583 5581 5579 5577 5575 5573 5570
5715 5694 5696 5696 5701 5702 5700 5701 5702 5693 5684 5671 5671 5669 5669 5668 5664 5659 5653 5647 5642 5637 5633 5627 5622 5617 5613 5610 5608 5605 5602 5598 5595 5591 5587 5584 5581 5578 5576 5573 5571 5569 5567 5565
5707 5695 5694 5690 5700 5700 5696 5699 5700 5695 5690 5680 5674 5668 5673 5668 5661 5653 5648 5643 5637 5632 5628 5623 5618 5613 5609 5606 5603 5600 5596 5593 5590 5586 5583 5580 5577 5574 5572 5569 5567 5564 5562 5560
5698 5691 5681 5674 5689 5691 5678 5689 5691 5689 5689 5681 5669 5668 5667 5659 5654 5648 5644 5640 5634 5629 5624 5619 5615 5610 5606 5602 5599 5595 5592 5589 5585 5582 5579 5576 5574 5571 5568 5566 5563 5560 5558 5555
5695 5686 5673 5669 5674 5662 5678 5698 5697 5688 5683 5683 5677 5670 5665 5659 5653 5647 5642 5636 5630 5626 5620 5615 5610 5606 5601 5598 5595 5592 5589 5585 5582 5579 5576 5573 5570 5567 5565 5562 5560 5557 5555 5553
5703 5688 5672 5662 5659 5664 5682 5693 5693 5681 5673 5679 5672 5665 5659 5653 5645 5638 5637 5634 5628 5622 5616 5610 5606 5602 5598 5594 5591 5588 5585 5581 5578 5575 5573 5570 5568 5565 5563 5560 5557 5555 5553 5551
5699 5690 5673 5663 5657 5654 5673 5695 5701 5685 5663 5675 5670 5661 5654 5647 5633 5631 5633 5629 5623 5617 5611 5606 5601 5597 5593 5590 5588 5584 5581 5578 5575 5573 5570 5569 5566 5564 5561 5559 5557 5555 5553 5551
5682 5677 5669 5661 5656 5663 5686 5697 5695 5665 5661 5673 5669 5661 5653 5645 5640 5637 5631 5625 5619 5613 5608 5603 5598 5594 5591 5588 5585 5580 5578 5575 5574 5572 5569 5567 5565 5563 5561 5559 5557 5555 5553 5551
5677 5669 5665 5660 5652 5659 5691 5690 5679 5673 5677 5674 5666 5660 5653 5646 5641 5635 5629 5621 5615 5610 5605 5600 5595 5591 5588 5586 5582 5578 5575 5575 5574 5571 5568 5565 5564 5563 5562 5559 5557 5555 5553 5551
5684 5682 5674 5669 5667 5682 5691 5690 5688 5684 5676 5671 5664 5659 5653 5644 5637 5631 5625 5618 5613 5608 5603 5599 5594 5590 5586 5583 5581 5577 5575 5574 5572 5569 5566 5564 5564 5563 5561 5559 5557 5555 5553 5550
5692 5694 5682 5676 5680 5686 5688 5688 5686 5684 5678 5672 5666 5659 5652 5643 5636 5629 5622 5616 5611 5607 5602 5598 5594 5589 5585 5583 5581 5579 5577 5574 5572 5568 5566 5564 5563 5562 5561 5559 5557 5555 5554 5552
5693 5692 5681 5676 5681 5682 5684 5685 5684 5681 5677 5670 5664 5658 5651 5643 5635 5628 5621 5615 5610 5606 5602 5599 5594 5590 5587 5584 5582 5580 5578 5575 5571 5569 5566 5565 5563 5562 5560 5559 5558 5558 5557 5556
5694 5689 5680 5675 5683 5680 5679 5683 5684 5678 5672 5668 5661 5655 5650 5644 5636 5629 5622 5616 5612 5607 5603 5599 5595 5592 5588 5586 5583 5582 5580 5577 5573 5569 5567 5566 5564 5563 5561 5560 5560 5562 5561 5561